Location: Pasadena-CA
(34.1440°N, 118.1100°W)
Time: 13:32:50
(UTC-07:00)

Oscar 19 - Pass Details

Date: 08 July 2022
Orbit: 773 x 790 km, 98.8° (Epoch: 17 August)

Event Time Altitude Azimuth Distance (km) Brightness Sun altitude
Rises 04:43:51 0° 7° (N) 3,254 14.6 -12.0°
Reaches altitude 10° 04:46:12 10° 3° (N) 2,324 13.7 -11.6°
Maximum altitude 04:51:10 54° 287° (WNW) 936 10.8 -10.8°
Enters shadow 04:56:08 10° 211° (SSW) 2,315 12.5 -9.9°
